User: anonymous   Login
Location: Nantong Television Tower
(32.0188°N, 120.8512°E)
Time: 19:07:57
(UTC+08:00)
Language:

ATLAS 3B CENTAUR R/B - Orbit

View from above orbital plane
View from above orbital plane
View from above satellite
View from above satellite

Ground track
Ground track

The orbit data is extracted from the following two-line orbital elements,

1 28118U 03057B   17145.45453414 +.00051670 +00000-0 +76103-3 0  9992
2 28118 028.1102 190.6540 3075734 161.3260 213.1129 09.32559201287551
Epoch (UTC): 25 May 2017 10:54:31
Eccentricity: 0.3075734
inclination: 28.1102°
perigee height: 223 km
apogee height: 6088 km
right ascension of ascending node: 190.6540°
argument of perigee: 161.3260°
revolutions per day: 9.32559201
mean anomaly at epoch: 213.1129°
orbit number at epoch: 28755

The dashed part of the orbit path shows where the satellite is in the earth's shadow,  

DLR